GFSNGP_prec_cloud_003.txt.gz
Cloud_Cover
0 2 4 1 0 0 0 0 0 2 10 5 22 78 8 5 0 0 0 0 0 0 0 0 0 0 0 0 0 0 0 0 0 0 0 0 0 1 0 1 5 5 5 13
0 0 1 5 5 0 0 0 0 0 5 5 7 100 94 0 0 0 0 5 0 0 0 0 0 0 0 0 0 0 0 0 0 0 0 0 0 39 51 5 5 5 24 97
5 6 88 52 0 0 3 2 0 0 0 0 25 78 27 3 0 0 0 0 0 0 0 0 3 3 0 0 0 0 0 0 0 0 0 8 54 69 56 35 20 60 17 76
64 100 92 0 0 32 12 5 10 5 0 0 0 0 3 11 4 0 0 0 0 0 0 0 0 0 0 0 0 0 0 0 0 0 58 100 98 39 72 21 71 96 100 88
77 77 12 1 100 2 9 3 4 5 4 0 1 1 4 39 53 4 0 0 0 0 0 0 0 0 0 0 0 0 0 0 0 46 60 100 100 87 76 41 100 100 87 48
100 81 49 14 100 2 2 0 0 36 89 0 5 5 0 53 100 100 24 0 0 0 0 0 0 0 0 0 0 0 0 0 0 93 100 100 89 89 93 100 100 100 98 95
22 52 89 78 0 4 4 37 60 0 0 3 4 7 100 1 5 95 66 5 5 5 4 1 0 0 0 0 0 0 3 3 14 86 100 100 100 73 100 100 100 96 77 98
62 97 58 25 34 26 18 5 2 1 0 0 34 95 1 0 0 5 5 5 5 5 5 5 5 3 0 3 2 2 0 72 62 86 88 99 88 100 90 86 100 80 23 84
92 96 25 13 51 3 0 0 2 2 4 0 0 0 0 0 0 0 0 0 0 5 5 5 5 5 20 99 80 91 98 100 99 100 100 100 62 58 38 71 89 63 78 71
100 8 96 100 13 0 0 1 48 4 32 5 9 10 14 4 0 0 0 0 2 0 3 6 14 39 37 10 87 56 72 97 100 100 100 100 82 100 100 40 49 92 57 16
42 99 100 34 5 3 0 77 7 60 65 100 94 100 100 100 98 93 87 34 4 17 23 82 100 38 5 44 68 100 100 100 100 100 95 100 93 64 34 28 77 28 26 2
95 99 100 6 14 4 15 100 97 58 100 100 100 100 88 87 54 29 93 100 98 76 72 100 84 94 100 97 100 100 100 100 100 94 100 60 54 87 82 78 97 73 39 47
100 100 91 35 5 15 94 100 98 42 12 41 100 93 40 91 99 98 100 100 75 98 98 93 99 100 100 100 100 100 100 100 100 100 88 58 28 34 14 33 7 3 0 0
98 87 30 7 51 99 100 100 100 100 100 100 98 100 96 100 84 6 5 5 19 40 100 86 100 100 100 100 100 100 100 100 100 100 100 100 100 100 29 4 0 0 41 7
100 100 73 74 96 99 100 100 100 100 100 100 100 99 100 64 39 41 80 96 100 100 100 100 100 90 100 100 100 100 100 100 94 100 100 89 100 100 59 78 97 16 0 0
100 86 100 100 100 100 100 100 100 100 100 100 98 94 95 44 98 100 100 53 22 100 100 100 100 88 100 100 100 80 100 96 53 64 38 79 0 0 4 5 14 2 29 0
100 82 100 100 100 100 100 100 100 100 100 100 100 100 100 100 100 100 100 100 100 100 100 100 100 100 100 100 100 100 100 21 0 88 11 6 4 5 35 73 97 100 100 21
100 100 100 100 100 100 100 100 100 100 100 100 100 100 100 100 100 100 100 98 100 100 100 100 100 96 87 96 67 24 97 30 48 99 100 1 5 5 65 90 42 96 58 46
100 100 100 100 100 100 100 100 100 100 100 100 100 100 100 100 100 100 100 100 100 100 100 100 100 91 100 100 100 84 100 100 100 25 7 54 42 32 92 31 74 68 34 40
100 100 100 100 100 100 100 100 100 100 100 100 100 100 100 100 100 100 100 100 100 100 100 100 100 100 100 100 81 85 100 100 91 78 63 97 84 70 63 43 10 80 50 59
100 100 100 100 100 100 100 100 100 100 100 100 100 100 100 100 100 100 100 100 100 100 28 59 90 31 12 99 98 100 100 26 41 62 100 76 85 15 90 100 85 38 74 80
100 100 100 100 100 100 100 100 100 100 100 100 100 100 100 100 100 91 100 100 100 100 90 100 100 11 100 100 93 100 100 100 94 97 60 38 7 15 22 52 84 98 73 66
100 100 100 100 100 100 100 100 100 100 100 100 100 100 100 100 100 100 100 95 100 87 100 100 100 98 27 99 100 100 100 96 34 16 8 17 5 5 3 0 4 4 5 0
100 100 100 100 100 100 100 100 100 100 100 100 100 100 100 100 100 100 100 100 100 100 100 100 100 100 100 100 100 66 87 98 100 18 5 5 5 2 0 5 4 0 3 4
100 100 100 100 100 100 100 100 100 100 100 100 100 100 100 100 100 100 100 100 100 100 100 100 98 99 100 99 100 81 93 82 81 55 33 8 5 5 5 5 5 5 5 5
100 100 100 100 77 100 100 100 100 100 100 100 100 100 99 100 100 99 100 100 100 100 97 99 97 82 89 74 78 94 82 93 91 19 9 2 3 4 9 5 4 5 5 5
100 100 100 100 100 100 100 100 100 100 95 75 99 100 100 100 99 53 80 76 84 87 100 97 100 99 97 94 83 75 100 96 96 98 100 96 88 68 72 76 57 4 4 5

GFSNGP_prec_cloud_009.txt.gz
Cloud_Cover
2 5 2 4 2 2 0 0 0 0 0 0 0 31 84 91 85 90 99 55 89 4 5 4 0 0 0 0 0 0 0 0 0 0 0 0 0 0 0 0 0 0 0 0
0 13 14 0 0 0 5 2 0 0 0 0 0 3 55 100 100 25 68 78 100 7 3 0 0 0 0 0 0 0 0 0 0 0 0 0 0 0 0 0 0 5 5 0
0 5 6 0 0 1 0 0 0 0 0 0 0 0 0 100 38 97 87 99 32 66 20 1 0 0 0 0 0 0 0 0 0 0 0 0 0 0 0 0 2 5 7 66
0 5 64 8 5 0 0 1 2 0 0 0 0 0 0 15 99 11 1 17 100 100 100 10 0 0 0 0 0 0 0 0 0 0 0 0 0 0 5 5 4 0 79 100
2 0 0 0 5 6 88 4 100 1 3 0 0 0 0 0 32 11 0 13 82 73 52 62 18 5 1 5 2 0 5 5 4 0 1 1 2 5 5 10 43 100 100 100
30 4 0 4 20 100 7 5 5 2 5 5 1 4 0 0 0 0 0 0 4 38 100 100 50 5 3 0 0 0 0 3 2 5 5 4 1 5 23 32 100 100 100 100
25 4 9 4 91 100 100 5 2 4 5 2 0 0 0 0 0 0 0 0 3 1 5 2 76 5 3 0 0 0 0 0 0 0 0 2 13 16 70 63 27 12 100 91
100 91 100 100 100 100 55 2 3 5 25 11 2 0 0 0 0 0 0 0 0 5 5 100 18 0 45 1 0 0 0 0 8 39 47 16 5 5 64 22 88 74 94 100
100 99 97 100 100 100 37 5 7 83 89 62 60 47 1 0 0 0 0 0 0 0 70 24 92 2 0 0 4 0 15 72 85 63 52 16 21 36 29 34 62 10 65 100
100 100 62 84 78 6 98 39 100 100 100 100 100 91 2 0 0 0 0 0 0 0 0 2 99 32 5 2 0 24 95 95 98 100 66 35 10 17 69 7 39 36 25 24
100 100 100 100 100 100 75 62 100 100 100 100 72 4 0 0 0 0 62 62 21 0 27 83 54 73 90 55 9 100 90 82 100 100 68 100 86 74 89 89 36 5 12 5
100 100 100 98 100 100 100 99 100 100 100 100 4 0 0 0 7 59 100 100 100 100 64 67 80 10 38 100 24 97 100 100 100 100 99 39 54 100 99 58 5 28 97 96
100 100 100 100 100 42 95 100 100 100 100 23 4 0 22 5 11 100 100 100 100 100 96 99 6 11 2 16 25 9 100 100 100 100 42 85 100 100 100 98 92 24 80 69
100 100 100 100 100 100 100 100 100 98 5 5 0 0 25 5 5 100 100 100 100 100 100 100 100 100 29 100 6 100 100 100 100 72 72 99 87 100 99 58 55 100 100 100
100 100 100 100 100 100 100 100 99 35 51 5 0 0 5 39 33 100 100 100 100 100 100 28 10 8 93 54 90 100 52 14 7 10 95 98 100 100 100 100 100 100 100 100
100 100 100 100 100 100 100 100 88 100 100 57 3 65 15 92 100 100 100 100 100 100 100 18 100 99 82 84 72 91 51 47 22 87 100 100 100 100 100 100 100 100 100 100
100 100 100 100 100 100 100 100 100 100 99 38 10 5 5 76 100 100 100 100 100 100 76 78 36 99 29 100 100 100 100 100 90 100 100 100 100 98 94 47 100 100 100 100
100 100 100 100 100 100 100 100 100 44 24 38 100 82 100 79 100 100 100 100 99 100 96 66 80 96 99 100 100 100 100 100 100 100 100 100 100 100 100 100 97 80 100 100
100 100 100 100 100 100 100 100 100 58 93 100 100 100 89 100 100 100 100 100 100 100 100 100 100 86 63 93 100 100 100 100 100 100 100 100 99 69 76 93 85 100 96 95
100 100 100 100 100 100 100 100 100 99 80 99 99 99 78 90 100 100 100 100 100 100 100 100 96 100 100 100 98 100 100 100 100 100 100 100 100 100 100 100 100 23 94 100
100 100 100 100 100 100 99 100 100 100 100 100 97 100 92 32 31 100 100 100 100 91 100 100 100 100 100 98 59 100 100 100 100 100 100 100 100 100 100 92 74 100 100 80
100 100 100 100 100 100 100 96 100 100 100 100 100 100 96 62 11 12 61 100 100 98 100 100 100 100 100 100 100 100 100 100 100 100 100 100 100 100 100 100 100 100 100 99
100 100 100 100 100 100 100 100 100 100 99 100 100 99 100 100 100 85 100 100 100 100 100 100 100 100 100 100 100 100 100 100 100 100 100 100 100 100 98 91 61 42 82 16
100 100 100 100 100 100 100 100 100 100 100 80 100 100 100 100 100 100 100 87 100 87 100 100 100 94 100 98 100 100 100 100 97 97 100 93 97 100 100 90 67 13 72 100
100 100 100 100 100 99 95 100 100 100 100 97 100 100 100 100 100 100 100 100 100 100 100 87 100 100 100 100 100 100 96 100 100 100 100 100 100 100 100 99 56 100 100 100
100 100 100 100 100 100 100 100 100 100 88 45 94 100 100 100 100 100 100 100 100 100 100 100 100 100 100 100 100 100 100 100 100 100 100 100 100 100 100 100 100 100 99 95
100 100 100 100 100 100 100 100 72 100 100 100 12 72 100 90 74 75 83 100 96 100 100 100 100 100 100 100 100 100 100 99 98 100 38 38 46 100 100 100 99 79 52 98

GFSNGP_prec_cloud_012.txt.gz
Cloud_Cover
52 83 5 5 69 5 5 14 3 100 0 0 0 0 0 0 0 14 48 63 98 38 83 33 20 8 0 0 0 0 0 0 0 0 0 0 0 0 0 0 0 0 0 5
5 10 5 5 37 6 5 75 7 100 17 5 0 0 0 0 5 0 5 0 39 26 5 4 0 0 2 1 1 0 0 0 0 0 0 0 0 0 0 0 0 0 0 5
0 0 0 0 36 47 73 18 27 36 90 5 0 0 0 0 1 0 5 0 4 0 0 1 2 0 0 5 0 0 0 0 0 0 0 0 0 0 3 0 12 1 0 3
0 0 4 5 1 2 4 5 5 14 77 29 0 0 5 0 1 5 0 0 0 0 0 1 1 4 2 5 4 1 0 0 0 0 0 0 0 0 34 36 29 2 8 0
4 5 2 0 5 1 0 0 2 5 93 24 5 4 3 5 0 0 0 0 0 0 0 1 20 8 5 11 0 1 0 0 0 4 1 0 0 0 26 47 47 20 5 4
100 100 67 0 0 4 0 0 0 4 80 100 60 50 5 5 5 1 0 0 0 0 1 0 1 18 48 15 4 0 0 2 0 0 3 5 0 0 1 18 44 51 38 67
100 100 59 0 0 5 2 2 0 4 19 100 67 96 69 38 5 13 2 0 0 0 0 0 0 0 0 0 1 5 5 3 0 0 0 2 2 7 45 55 38 69 81 100
100 100 98 10 2 5 7 0 0 0 0 16 7 32 27 68 41 48 9 1 0 0 0 0 0 0 0 0 0 30 5 4 0 0 0 25 88 80 62 55 68 100 100 100
100 100 93 16 5 4 95 5 0 0 0 4 5 5 5 71 56 32 5 0 0 0 0 0 0 5 5 5 80 73 74 97 2 5 1 47 83 81 100 80 87 100 100 100
100 100 100 98 0 1 11 0 0 0 0 0 0 0 5 10 32 19 4 3 0 0 32 2 0 0 0 91 99 59 11 8 98 72 100 92 76 79 84 100 100 100 100 100
100 100 100 98 87 100 94 5 42 89 5 3 0 5 12 8 5 8 0 0 19 77 10 68 83 100 100 100 100 100 100 100 100 100 100 100 100 100 100 100 100 100 100 100
100 100 100 100 100 100 100 100 16 7 96 79 71 38 27 17 7 0 0 0 26 99 100 100 100 100 100 100 100 100 100 100 100 100 100 100 100 100 100 100 100 100 100 100
100 100 100 100 100 100 88 99 90 100 100 100 100 100 5 5 0 0 0 4 68 100 100 100 100 100 100 100 100 100 100 100 100 100 100 100 100 100 100 100 100 100 100 94
100 100 100 100 67 100 100 100 100 100 100 100 100 100 66 2 1 0 4 100 100 100 100 100 100 100 100 100 100 100 100 100 100 100 92 100 100 94 100 100 100 100 85 46
100 100 100 100 89 100 100 100 100 100 100 100 100 100 40 0 0 2 98 100 100 100 100 100 100 100 100 100 100 100 100 100 93 81 7 6 0 63 100 100 88 20 31 100
100 98 78 93 100 100 100 100 100 100 100 100 61 25 4 0 0 25 100 100 100 100 100 100 100 100 100 100 100 100 100 100 78 35 44 46 44 6 24 27 91 100 100 100
100 100 100 100 100 100 100 100 100 100 100 100 35 6 0 0 0 66 100 100 100 100 100 100 100 100 100 100 100 100 100 100 86 89 34 28 24 78 100 100 100 100 100 100
100 100 100 100 100 100 100 100 100 100 100 71 65 36 5 9 21 100 100 100 100 100 100 100 100 100 100 100 100 100 100 100 53 100 100 100 67 96 100 100 100 100 100 100
100 100 100 100 100 100 100 100 100 100 100 100 100 73 60 75 46 100 100 100 100 100 100 100 100 100 100 100 100 100 100 100 100 100 100 100 100 100 98 100 100 100 100 100
100 100 100 100 100 100 100 100 96 100 100 100 40 78 100 56 52 74 99 100 100 100 100 100 100 100 100 96 93 100 100 100 100 100 60 73 96 100 100 100 100 100 100 100
100 100 100 100 100 100 100 100 100 100 100 95 98 98 7 5 6 79 79 86 88 100 100 100 100 100 100 100 100 99 94 100 98 99 100 100 100 100 100 100 100 100 100 100
100 100 100 100 100 100 100 100 100 96 88 89 70 90 21 9 5 5 26 100 99 100 100 100 100 100 93 100 100 100 100 90 53 41 100 100 100 100 100 100 100 100 96 100
100 100 100 100 100 100 100 100 99 100 100 100 100 26 94 92 14 66 16 3 9 26 67 100 100 100 100 100 100 100 100 91 76 92 100 100 100 100 100 100 96 100 100 100
100 100 100 100 100 100 100 100 100 100 100 100 100 100 57 100 92 67 29 31 10 5 5 24 99 94 92 100 100 100 100 100 100 100 100 100 100 100 100 100 100 100 100 100
100 100 100 100 100 100 100 100 100 100 100 100 100 100 100 89 75 63 48 5 5 5 5 5 2 20 97 99 99 100 58 43 55 89 100 100 100 20 61 100 100 100 100 100
100 100 100 100 100 100 100 100 100 100 100 100 100 100 85 61 89 84 100 100 30 5 5 43 16 25 90 100 100 100 96 100 100 100 100 100 100 100 100 100 89 69 16 78
100 100 100 100 100 100 100 100 100 100 100 100 100 100 100 98 44 40 62 98 100 99 74 60 28 85 100 97 100 100 100 100 95 96 100 100 100 100 100 100 90 100 100 80

GFSNGP_prec_cloud_015.txt.gz
Cloud_Cover
5 0 7 6 5 5 5 95 14 100 29 2 0 0 0 0 0 0 0 4 4 1 0 62 14 6 49 4 1 5 0 0 0 0 0 0 0 0 0 0 0 0 0 0
5 8 2 4 5 84 100 100 53 100 10 100 0 0 0 0 0 0 0 0 0 5 4 12 85 73 4 5 5 5 0 0 0 0 0 0 0 0 0 0 0 0 0 0
0 0 1 0 82 98 58 53 100 100 92 67 4 0 0 0 0 0 0 0 0 0 0 4 4 17 5 11 0 4 0 0 0 0 0 0 0 0 0 0 0 0 0 0
0 0 0 81 17 0 0 1 5 96 100 92 5 1 4 5 3 0 0 0 0 0 0 0 0 13 96 35 1 0 4 4 0 0 0 0 23 13 13 6 30 38 0 0
0 0 0 0 0 0 0 2 0 9 66 87 83 0 5 5 5 5 0 0 0 0 0 0 0 0 0 0 0 4 4 35 87 29 0 0 15 42 54 68 86 57 8 0
15 1 0 0 0 0 0 0 4 3 4 5 100 26 4 5 5 5 5 3 0 0 0 0 0 0 0 0 0 0 11 100 76 92 5 2 0 30 66 100 100 94 41 7
16 56 1 0 0 0 0 0 1 5 8 6 65 93 10 5 1 5 5 0 0 0 0 0 0 0 1 1 0 1 97 100 84 100 88 98 5 28 63 100 100 100 92 87
64 52 47 0 5 81 49 13 0 3 5 5 5 30 6 21 60 50 32 4 20 16 0 0 0 0 50 18 56 100 100 100 100 75 20 100 80 57 98 100 100 100 100 100
81 63 5 56 69 94 92 15 18 0 0 5 2 41 52 75 34 5 5 4 0 0 0 0 27 1 5 5 40 100 100 94 24 100 59 100 100 100 100 100 100 100 100 100
100 100 8 100 57 99 76 50 16 4 0 0 27 28 9 33 55 13 3 0 0 0 0 0 0 2 5 6 21 2 0 6 66 8 5 98 100 100 100 100 100 100 100 100
34 100 100 100 83 84 32 10 0 0 42 9 0 7 3 4 4 0 0 0 0 0 0 0 0 0 0 1 10 5 3 0 17 99 100 100 100 100 100 100 100 100 100 100
14 99 100 100 98 20 53 10 10 4 4 77 22 5 4 2 6 3 2 0 0 0 0 58 93 100 100 85 2 31 0 5 83 98 100 100 100 100 100 100 100 100 100 100
91 8 100 100 100 100 100 96 52 65 10 25 28 100 81 5 13 21 27 48 8 2 11 100 100 100 100 100 100 98 99 100 100 100 100 100 100 100 100 100 100 100 100 100
100 100 100 100 100 100 100 57 28 72 46 100 64 5 19 8 12 53 91 63 52 33 98 100 100 100 100 100 100 100 100 100 100 100 100 100 100 100 100 100 100 100 100 100
100 100 100 100 100 100 100 100 98 74 100 98 99 87 44 25 5 2 7 10 24 34 100 100 100 100 100 100 100 100 100 100 100 100 100 100 100 100 100 100 100 100 100 100
100 100 100 100 100 100 100 100 100 100 82 100 100 100 100 100 82 92 88 97 59 98 100 100 100 100 100 100 100 100 100 100 100 100 100 100 100 100 100 100 100 100 100 100
100 100 100 100 100 100 100 100 100 100 100 100 100 100 100 100 100 100 100 98 68 100 100 100 100 100 100 100 100 100 100 100 100 100 100 100 100 100 100 100 100 100 100 100
97 100 100 100 100 100 100 100 100 100 100 100 100 100 100 85 57 79 87 5 26 100 100 100 100 100 100 100 100 100 100 100 100 100 100 100 100 100 100 100 100 100 98 100
100 100 100 100 100 100 100 100 100 100 100 100 100 100 93 62 10 18 50 5 56 100 100 100 100 100 100 100 100 100 100 100 100 100 100 100 100 100 100 100 100 100 100 100
100 100 100 100 100 100 100 100 100 100 100 100 100 48 98 100 44 53 16 5 5 100 100 100 100 100 100 100 100 100 100 100 100 100 100 100 100 100 100 84 100 100 100 100
100 100 100 100 100 100 100 100 100 100 100 100 99 100 81 65 97 27 37 5 20 100 100 100 100 100 100 100 100 100 100 100 100 100 100 100 100 100 100 100 100 100 100 100
100 100 100 100 100 100 100 100 100 100 100 100 100 100 77 32 7 50 44 8 98 100 99 99 100 93 100 100 100 100 100 100 100 100 100 100 85 88 100 100 100 100 100 100
100 100 100 100 100 100 100 100 100 100 100 100 88 100 100 100 86 60 57 74 14 52 98 80 100 93 100 100 100 100 100 100 100 92 99 93 99 100 100 100 100 100 100 100
100 100 100 100 100 100 100 100 100 100 100 100 100 100 95 63 65 81 58 5 4 0 0 3 75 100 100 100 100 100 100 91 74 57 92 100 100 98 100 100 100 100 100 100
100 100 100 100 100 100 100 100 100 100 100 100 99 100 100 81 49 86 68 51 16 5 5 3 5 5 17 92 100 100 100 100 100 100 100 100 100 100 100 100 100 100 100 100
100 100 100 100 100 100 100 100 100 100 100 100 100 100 100 100 100 33 65 37 51 53 5 5 5 5 4 5 41 100 100 100 100 100 93 90 82 72 65 65 95 100 98 97
100 100 100 100 100 100 100 100 100 100 100 100 100 100 100 100 100 100 100 100 97 100 100 62 25 5 5 5 5 5 25 70 75 98 100 100 100 100 100 100 100 100 100 100

GFSNGP_prec_cloud_021.txt.gz
Cloud_Cover
0 0 0 0 0 0 0 1 10 99 0 0 0 0 0 0 0 0 0 0 5 5 8 5 3 5 5 4 0 0 0 0 0 0 0 0 0 0 0 0 0 0 0 0
0 0 0 0 0 0 0 0 70 97 0 0 0 0 0 0 0 0 0 0 0 0 4 5 6 5 0 0 0 4 0 0 0 0 0 0 0 0 0 0 0 0 0 0
0 0 0 0 0 0 0 3 19 95 33 0 0 0 0 0 0 0 0 0 0 0 0 0 3 5 9 4 0 5 25 100 68 19 1 1 0 0 0 0 0 0 0 0
0 0 0 0 0 0 0 5 6 100 93 0 0 0 0 0 0 0 0 0 0 0 0 0 0 0 0 2 5 3 92 100 76 3 12 3 0 0 0 0 0 0 0 0
0 0 0 0 0 0 0 5 41 100 100 84 2 0 5 5 0 0 0 0 0 0 0 0 0 0 0 0 2 0 1 31 1 3 4 2 0 5 5 5 20 5 0 0
0 0 0 0 0 0 0 4 69 100 100 100 80 0 0 3 5 4 3 0 0 0 0 0 0 0 0 0 0 0 0 5 1 1 4 3 5 6 33 11 5 5 7 2
5 1 0 0 0 0 0 5 5 48 100 49 8 8 0 0 0 4 5 5 3 0 0 0 0 0 0 0 0 0 0 0 0 0 0 5 5 18 7 25 18 22 69 5
4 4 0 0 0 0 2 4 11 9 58 96 14 3 5 1 0 0 4 5 5 3 5 2 0 0 0 0 0 0 0 0 0 0 0 0 0 0 11 19 18 39 86 71
1 0 0 0 0 0 0 0 0 5 5 97 74 5 1 0 0 0 0 0 5 5 5 4 0 0 0 0 0 0 0 0 0 0 1 4 1 2 46 63 33 56 100 100
1 3 2 0 0 0 0 0 0 63 67 100 100 27 4 0 0 0 0 0 0 4 5 5 5 3 0 0 0 0 0 0 0 0 4 7 1 14 55 63 91 90 100 98
5 1 0 0 0 0 0 0 8 33 86 100 93 94 4 0 0 0 0 0 0 0 2 5 5 5 4 1 0 0 0 0 4 5 4 4 1 2 16 5 57 100 64 97
5 4 16 0 0 2 0 0 31 39 100 100 96 99 100 100 100 100 100 91 71 44 28 35 0 0 0 4 0 0 0 0 0 0 0 0 0 9 96 89 81 79 84 75
3 5 0 28 0 2 0 45 19 98 100 100 100 100 100 100 100 100 100 100 100 100 100 89 33 71 98 96 33 0 0 10 2 55 0 0 46 100 100 100 100 100 100 100
38 6 4 2 7 20 53 74 84 100 100 89 70 100 100 100 68 62 44 43 32 29 40 45 76 100 100 97 1 0 11 96 64 48 83 96 100 100 100 100 93 100 100 100
100 38 5 28 20 83 100 100 94 100 88 89 78 66 67 100 96 100 98 100 100 33 0 0 0 91 100 50 15 0 0 37 52 0 2 7 43 100 88 99 100 100 100 100
100 96 74 87 63 100 100 100 100 100 100 15 40 100 88 87 91 100 100 100 100 100 23 53 2 1 68 100 75 89 46 83 41 27 4 5 97 68 5 66 95 100 100 100
100 100 100 100 100 100 100 100 100 100 100 95 58 22 100 99 98 100 87 100 95 100 100 100 42 5 5 60 100 100 100 100 87 67 76 61 100 20 9 100 100 100 100 100
100 100 100 100 100 100 100 100 99 93 86 35 56 67 91 75 82 100 100 100 100 100 100 68 61 44 24 5 33 95 100 100 100 100 100 96 100 54 39 100 100 100 100 100
100 100 100 100 100 100 100 100 100 100 95 100 68 53 64 99 100 100 100 100 100 100 100 40 40 5 16 8 3 4 23 97 100 100 100 100 100 100 100 100 100 100 100 100
100 100 100 100 100 100 100 100 100 100 98 95 99 98 100 100 100 71 98 100 100 100 100 49 6 4 6 5 6 26 49 42 38 54 82 97 97 98 100 100 100 100 100 100
100 100 100 100 100 100 100 100 100 100 98 100 100 100 100 100 100 100 100 100 100 98 13 47 6 5 5 11 98 100 100 100 100 100 100 99 100 75 100 100 100 100 100 100
100 100 100 100 100 100 100 100 100 100 100 100 100 100 100 100 100 100 100 99 42 60 79 97 10 10 5 24 100 100 100 100 100 100 100 92 93 99 100 95 100 100 100 100
100 100 100 100 100 100 100 100 100 100 100 100 100 100 100 100 100 100 100 99 100 98 99 58 9 5 58 98 100 100 100 100 100 91 97 100 100 100 100 100 100 100 100 100
100 100 100 100 100 100 100 100 100 100 100 100 100 100 100 100 100 100 100 100 100 100 94 92 46 16 5 77 64 100 100 100 73 30 45 45 90 100 100 100 100 100 100 100
100 56 95 100 100 100 100 100 100 100 100 100 100 100 100 100 100 100 100 100 100 100 64 97 53 27 54 6 9 72 83 100 100 72 99 49 6 43 95 100 100 100 100 100
100 100 100 83 48 99 100 100 100 100 100 100 100 100 100 100 100 100 100 100 99 59 100 100 99 88 75 90 87 48 100 94 97 74 100 93 92 89 81 35 67 62 99 100
100 100 100 100 100 100 87 100 100 100 100 100 100 100 100 100 99 100 100 100 80 66 63 7 97 100 100 100 100 100 100 100 100 91 100 84 68 96 71 82 98 100 86 100

GFSNGP_prec_cloud_024.txt.gz
Cloud_Cover
0 0 0 0 0 0 0 45 4 3 0 0 0 0 0 0 0 0 0 1 5 5 5 5 5 6 32 100 100 7 4 2 4 0 0 0 0 0 0 0 0 0 0 0
0 0 0 0 0 0 1 100 24 46 0 0 0 0 0 0 0 0 0 0 0 5 5 5 5 5 5 5 10 5 4 0 0 0 0 0 0 0 0 0 0 0 0 0
0 0 0 0 0 0 2 96 31 43 6 0 0 0 0 0 0 0 0 0 0 2 4 0 4 4 2 3 2 0 0 0 2 4 2 0 1 0 0 0 0 0 0 0
0 0 0 0 0 0 0 86 60 67 5 4 0 0 0 0 0 0 0 0 0 0 0 3 5 4 5 3 2 1 0 4 2 10 92 2 4 3 0 0 0 0 0 0
0 0 0 0 0 0 0 98 100 100 91 21 0 0 0 0 0 0 0 0 0 0 0 0 0 0 0 0 0 0 0 0 4 5 62 11 1 0 0 0 0 0 0 0
4 0 0 0 0 0 0 68 100 100 100 100 6 0 0 0 1 5 0 0 0 0 0 0 0 0 0 0 0 0 0 0 0 0 7 96 1 0 0 0 1 0 0 4
5 5 0 0 0 0 0 7 16 100 52 98 24 1 0 0 0 0 0 1 0 0 0 0 0 0 0 0 0 0 0 0 0 0 0 1 0 0 0 0 0 0 0 1
5 5 4 0 0 0 1 45 1 100 100 87 100 80 0 0 0 3 5 5 5 5 3 0 0 0 0 0 0 0 0 0 0 0 0 0 0 0 0 0 2 0 5 0
63 0 0 0 0 0 0 0 0 28 100 72 74 85 7 0 0 0 2 5 5 5 5 4 0 0 0 0 0 0 0 0 0 0 0 0 0 1 26 11 0 22 1 0
39 4 23 10 0 0 0 0 0 1 66 100 48 96 48 5 0 0 0 0 1 5 4 0 0 0 0 0 0 0 0 0 0 0 0 3 0 14 8 7 44 0 5 5
64 55 10 5 0 0 0 1 0 0 2 96 77 43 79 20 6 2 0 0 0 0 2 5 1 0 0 0 0 0 0 0 0 0 0 2 2 0 0 0 0 0 5 5
5 32 31 10 4 0 3 0 0 0 0 3 23 98 75 49 92 82 86 70 67 77 48 0 0 0 1 0 0 0 0 0 3 0 0 0 0 0 87 49 90 100 86 54
68 90 95 55 54 0 0 0 0 0 0 34 100 100 100 100 100 100 100 100 99 84 85 66 94 100 100 26 0 0 0 0 0 18 0 0 0 0 0 33 100 100 100 100
100 100 72 27 9 0 0 0 0 0 15 49 100 100 100 100 100 99 62 60 46 54 82 76 82 100 100 13 7 8 8 55 1 0 0 0 3 0 0 0 1 6 47 81
14 56 55 95 92 34 37 42 50 35 100 100 100 100 100 100 100 96 59 32 34 48 51 46 52 87 100 99 70 32 6 9 10 0 0 0 0 0 0 0 2 22 99 100
100 100 100 100 42 32 68 88 16 100 100 100 100 100 100 100 88 63 36 20 0 12 63 82 73 100 100 100 94 65 13 56 44 10 52 48 40 25 1 0 67 82 87 71
100 100 100 100 90 57 56 68 100 100 100 100 100 100 100 96 79 94 99 12 1 18 38 100 100 100 100 100 100 100 29 100 100 98 76 95 91 20 8 14 0 62 28 78
100 100 37 44 15 82 100 100 100 100 100 100 100 100 100 100 100 95 100 100 95 93 99 88 100 100 100 100 100 100 100 100 100 99 100 100 97 98 98 97 73 24 12 25
100 100 100 100 100 100 100 100 100 97 100 100 100 97 100 100 100 100 100 100 100 97 93 100 84 96 99 100 100 100 100 91 87 95 100 100 78 75 97 100 100 100 99 68
100 100 100 100 100 100 100 100 100 100 100 100 100 100 100 100 100 100 67 78 84 71 96 81 100 100 100 100 100 100 98 80 100 100 95 98 100 69 69 63 90 100 100 100
100 100 100 100 100 100 100 100 100 100 100 100 100 100 100 100 100 77 97 100 94 100 99 77 100 100 100 100 100 100 100 100 53 59 86 86 78 100 94 74 77 100 100 100
100 100 100 100 100 100 100 100 100 100 100 100 100 100 100 100 100 100 100 89 78 100 100 99 99 100 71 20 54 21 74 100 98 82 52 89 97 100 99 99 100 98 100 100
100 100 100 100 100 100 100 100 100 100 100 100 100 100 100 100 100 100 100 100 100 100 100 89 100 72 100 100 100 100 99 88 83 68 68 60 100 100 100 100 100 100 100 100
100 100 100 100 100 100 100 100 100 100 100 100 100 100 100 100 100 100 100 100 100 100 100 100 100 96 100 100 100 88 77 55 35 21 31 5 6 61 87 75 83 32 93 100
100 100 100 100 100 100 100 100 100 100 100 100 100 100 100 100 100 100 100 100 100 100 100 100 100 100 100 100 54 90 100 33 60 48 60 66 61 60 32 93 66 28 96 76
100 100 90 97 99 76 93 100 100 100 100 100 100 100 100 100 100 100 100 100 100 100 100 100 100 100 100 100 100 100 100 82 44 60 12 4 18 39 19 17 50 76 91 77
73 13 12 43 52 37 93 94 100 98 100 100 100 100 100 100 100 100 100 100 100 100 100 100 100 100 100 100 100 100 99 65 46 97 100 34 5 5 5 5 15 17 24 64

GFSNGP_prec_cloud_027.txt.gz
Cloud_Cover
0 100 20 0 0 0 0 0 3 5 0 0 0 0 0 0 0 0 0 0 0 0 0 0 0 0 3 0 3 0 0 0 0 0 0 0 0 0 0 0 0 0 0 0
0 76 14 0 0 0 0 0 5 5 4 0 0 0 0 0 0 0 0 0 0 0 0 0 0 0 5 2 5 72 44 4 0 0 0 0 0 0 1 0 0 0 0 0
10 7 61 0 0 0 0 0 13 15 25 0 0 0 0 0 0 0 0 0 0 0 1 0 0 0 0 0 2 5 5 64 95 100 28 5 4 3 0 0 0 0 0 0
79 27 61 0 0 0 0 0 2 40 100 15 0 0 0 0 0 0 0 0 0 0 1 5 4 0 4 5 2 5 5 4 0 0 0 5 74 14 2 0 0 0 0 0
50 48 17 0 0 6 0 0 0 6 80 87 2 0 0 0 0 0 0 0 0 0 0 1 4 0 0 0 2 5 5 5 0 0 0 0 2 78 4 0 0 0 0 0
86 98 100 96 93 1 2 0 0 5 93 100 5 0 0 0 0 0 0 0 0 0 0 0 3 2 0 0 0 4 5 5 4 0 0 0 0 1 5 3 0 0 0 0
98 100 99 100 87 56 8 36 34 2 4 100 80 0 0 0 0 0 0 0 0 0 0 0 0 0 0 0 0 0 0 0 0 0 0 0 0 0 0 1 0 0 0 0
95 100 90 100 100 100 66 7 12 47 90 100 100 55 0 0 0 0 0 0 0 0 0 0 0 0 0 0 0 0 0 0 0 0 0 0 0 0 0 0 0 0 2 0
100 98 96 100 92 81 33 82 100 94 47 100 100 100 4 0 0 0 0 0 0 0 0 0 0 0 0 0 0 0 0 0 0 0 0 0 0 0 0 1 0 6 6 0
100 51 94 5 50 4 4 5 2 0 6 96 100 100 100 2 0 0 0 5 3 0 0 0 0 0 0 0 0 0 0 0 0 0 0 0 0 9 6 0 19 33 10 8
5 86 18 5 5 5 0 0 0 0 3 77 100 100 100 100 31 2 0 0 2 5 3 1 0 1 6 6 14 0 0 0 0 0 0 7 2 0 6 3 4 14 21 11
97 80 19 2 0 0 0 0 0 0 1 78 100 100 100 100 100 75 36 67 51 39 34 33 36 57 64 10 0 7 12 2 2 0 0 1 1 9 7 16 26 91 100 56
62 16 100 100 96 39 1 5 0 0 0 5 49 100 100 100 100 100 58 94 91 84 100 67 96 57 27 16 7 0 0 0 0 19 0 0 0 0 0 33 100 100 100 100
97 86 55 50 33 100 93 87 3 0 0 0 5 91 100 100 100 100 100 64 70 100 100 89 100 96 27 13 14 3 0 43 0 0 0 0 0 0 0 0 0 0 30 74
74 34 50 66 31 8 1 38 34 15 5 4 26 20 48 100 97 100 100 100 100 100 100 92 56 68 93 27 6 2 0 3 1 0 0 3 0 0 0 0 2 6 0 20
70 59 80 57 95 16 6 34 8 4 40 3 14 30 90 100 100 100 100 100 100 100 100 100 100 71 14 24 21 13 1 2 1 10 18 20 10 22 13 0 0 12 1 0
100 88 54 92 91 51 24 14 4 95 10 29 88 100 100 100 100 100 100 99 100 100 100 100 83 58 20 8 0 0 10 43 29 23 23 76 68 26 19 41 28 19 4 16
100 100 100 100 100 46 75 77 94 27 84 100 100 100 100 100 100 100 100 100 100 100 100 90 86 27 7 29 21 8 0 4 33 58 95 82 99 100 79 64 47 37 27 82
100 100 100 100 99 100 100 99 100 100 100 100 100 100 100 100 100 100 100 100 100 100 100 94 49 8 4 4 4 36 94 36 82 100 100 100 100 100 100 100 100 100 100 99
100 100 100 100 100 100 100 100 100 100 100 100 100 100 100 100 100 100 100 100 100 100 100 98 100 99 92 92 37 23 84 82 99 88 35 73 55 57 85 81 97 100 100 100
100 100 100 100 100 100 100 100 100 100 100 100 100 100 100 100 100 100 100 99 100 100 100 100 100 100 100 100 91 33 45 8 37 66 57 63 67 98 85 98 69 80 99 100
100 100 100 100 100 100 100 100 100 100 100 100 100 100 100 100 100 100 100 100 100 100 100 100 100 100 87 45 79 86 29 99 37 11 13 100 81 23 64 26 65 56 78 100
100 100 100 100 100 100 100 100 100 100 100 100 100 100 100 100 100 100 100 78 96 100 100 100 100 97 74 99 59 94 96 99 92 100 73 38 48 21 66 100 100 100 100 100
100 100 100 100 100 100 100 100 100 100 100 100 100 100 100 100 100 100 100 99 93 100 98 100 100 100 86 91 100 97 99 100 86 88 99 100 100 93 94 88 88 65 32 8
100 100 100 100 100 100 100 100 100 100 100 100 100 100 100 100 100 100 100 100 100 100 100 100 100 100 100 84 100 100 100 100 98 54 54 100 100 51 61 68 37 9 87 100
100 100 100 100 100 100 100 100 100 100 100 100 100 100 100 100 100 100 100 100 100 100 100 100 100 100 100 100 100 100 100 100 100 100 100 100 100 97 100 93 99 98 68 50
100 97 100 100 100 100 100 100 100 100 100 100 100 100 100 100 100 100 100 100 100 100 97 100 100 100 100 99 100 100 100 100 100 100 100 100 100 100 100 100 100 100 100 100

GFSNGP_prec_cloud_033.txt.gz
Cloud_Cover
0 0 2 77 44 1 0 0 0 0 0 0 0 0 0 0 0 0 0 7 5 2 0 0 0 0 0 0 0 0 0 0 0 0 5 5 0 0 0 0 0 0 0 0
0 1 100 67 97 20 0 0 5 0 0 0 0 3 0 0 0 0 0 5 5 5 5 0 0 0 0 0 0 0 0 0 0 0 0 0 0 0 0 0 0 0 0 0
0 85 100 83 28 67 2 0 0 3 0 0 0 0 0 0 0 0 0 3 10 5 5 0 0 0 0 0 0 0 0 0 0 0 1 0 0 0 0 0 0 0 0 0
22 100 49 1 97 82 100 0 0 0 12 4 72 86 2 0 0 0 0 0 0 0 0 0 2 0 0 0 0 0 0 0 0 0 5 3 0 0 0 3 2 12 25 5
100 100 2 74 100 100 100 100 6 63 99 100 96 5 2 0 0 0 0 0 0 0 0 0 1 2 5 4 0 0 0 0 0 0 5 31 5 3 2 11 69 81 47 80
94 100 83 100 100 86 100 100 86 100 100 100 43 5 0 0 0 0 0 0 0 0 0 0 0 4 5 4 4 0 0 0 13 100 99 94 5 5 5 1 0 0 0 5
98 100 86 100 100 100 100 99 83 100 100 79 0 4 0 0 0 0 0 0 0 0 0 0 0 0 0 2 3 1 0 2 5 5 41 76 5 5 5 5 4 1 4 5
100 98 100 100 100 100 100 100 95 89 100 0 0 0 0 0 0 0 0 0 0 0 0 0 0 0 0 0 4 5 4 5 1 2 0 0 3 5 9 15 5 5 5 9
100 100 96 100 100 100 100 100 98 84 19 0 0 0 0 0 0 0 0 0 0 0 0 0 0 0 0 0 0 0 2 5 11 5 5 5 6 16 28 53 55 5 4 17
100 100 96 100 100 96 96 100 100 20 2 0 0 0 0 1 85 0 0 0 5 0 0 0 0 0 0 0 0 0 0 0 2 5 5 5 5 5 5 4 4 63 61 24
100 100 27 100 100 100 97 100 100 33 2 0 0 0 0 0 0 98 12 0 0 5 4 5 2 0 0 0 0 0 0 0 0 0 0 0 0 2 0 2 13 6 3 2
15 14 15 42 100 100 100 55 99 30 26 0 0 0 0 0 0 21 74 0 0 0 2 10 38 2 0 0 0 0 0 0 0 0 0 0 0 18 92 71 98 100 98 98
19 3 0 0 0 95 98 100 5 11 48 19 0 0 0 0 0 0 4 23 0 0 5 5 21 5 4 5 0 23 56 0 0 0 0 0 0 0 4 40 100 100 100 100
1 26 8 96 2 2 3 0 5 5 14 73 36 0 0 0 0 3 2 11 5 6 20 38 5 15 91 24 0 28 100 100 23 56 9 16 99 23 96 86 57 100 75 94
18 52 16 89 85 6 54 60 10 5 5 5 17 5 0 0 0 0 0 1 49 5 5 0 4 42 72 95 5 0 54 47 73 5 2 59 100 100 100 100 26 6 5 4
100 100 100 61 0 1 4 6 47 51 15 84 92 28 4 0 0 0 0 54 58 12 100 40 29 74 10 8 1 0 0 0 1 0 0 0 0 7 6 21 5 0 0 1
100 100 98 74 0 0 0 0 0 0 1 5 57 5 0 0 1 1 84 55 100 100 100 87 78 48 0 0 5 52 0 2 0 0 0 0 0 1 2 32 25 38 67 81
100 100 100 100 39 0 0 0 0 0 20 49 2 0 6 11 48 98 100 94 100 100 73 100 91 38 61 4 0 22 26 18 21 2 18 16 20 33 70 100 100 100 100 86
100 100 100 100 100 27 6 18 95 100 95 71 86 95 83 34 100 94 100 20 100 100 32 66 92 95 50 67 3 1 65 14 34 70 40 62 91 100 100 100 100 100 100 100
100 100 100 100 100 100 100 100 100 100 100 100 100 100 100 100 98 99 93 100 100 96 96 99 100 100 100 100 100 92 62 100 100 100 98 45 9 4 6 22 94 100 100 100
100 100 100 100 100 100 100 100 100 100 100 100 100 100 100 100 100 79 100 100 100 100 24 100 100 100 100 100 100 100 84 100 100 100 100 64 54 11 1 1 26 91 98 100
100 100 100 100 100 100 100 100 100 100 100 100 100 100 100 100 100 100 100 100 100 100 100 100 100 100 100 65 83 100 100 100 91 25 22 91 83 8 5 4 0 2 2 0
100 100 100 100 100 100 100 100 100 100 100 100 100 100 100 100 100 100 100 100 100 100 100 100 100 100 100 100 100 100 100 100 100 100 87 24 5 67 85 30 13 22 12 5
100 100 100 100 100 100 100 100 100 100 100 100 100 100 100 100 100 100 100 100 100 100 100 100 100 100 100 95 100 100 100 100 100 100 100 100 100 100 53 98 100 100 100 98
100 100 100 100 100 100 100 100 100 100 100 100 100 100 100 100 100 100 100 100 100 100 100 100 100 100 100 100 100 100 100 100 100 100 100 100 100 100 94 96 100 100 100 100
100 100 100 100 100 100 100 100 100 100 100 100 100 100 100 100 100 100 100 100 100 100 100 100 100 100 100 100 100 100 100 100 100 100 100 100 100 100 100 100 100 100 100 100
82 100 92 100 100 100 100 100 100 100 100 100 100 100 100 100 100 100 100 100 100 100 100 100 100 100 100 100 100 100 100 95 100 100 100 100 100 100 100 100 100 100 100 100

GFSNGP_prec_cloud_036.txt.gz
Cloud_Cover
0 0 1 0 5 0 0 0 0 0 0 0 0 0 0 0 0 0 0 0 0 1 1 3 5 5 0 0 0 0 0 0 0 0 0 0 3 0 5 4 0 0 0 0
0 1 2 0 0 0 0 0 5 0 2 0 0 0 4 0 0 0 0 0 5 1 0 1 2 3 0 0 0 0 0 0 0 0 0 0 5 5 23 5 5 5 2 0
2 32 17 5 23 3 2 5 98 89 58 4 0 4 30 2 0 0 0 0 0 0 0 0 5 5 0 0 0 0 0 0 0 0 0 0 5 4 5 4 5 0 0 0
100 100 100 90 100 32 5 54 5 4 83 100 69 96 91 4 0 0 0 0 0 0 0 3 5 5 5 5 0 0 0 1 1 0 3 5 2 2 0 0 6 0 0 0
100 100 99 100 100 34 5 5 4 0 22 6 53 0 3 0 0 0 0 0 0 0 0 0 0 8 12 2 0 0 1 2 18 4 100 91 27 4 3 0 0 0 0 3
86 100 100 100 100 95 5 6 93 5 3 63 5 4 0 0 0 0 0 0 0 0 0 0 0 6 8 5 5 5 0 0 0 5 58 97 100 7 5 4 1 0 0 1
92 100 92 100 84 68 100 63 100 57 2 3 4 20 26 0 0 0 0 0 0 0 0 0 0 0 1 4 28 36 3 0 1 5 54 100 100 71 60 99 12 16 3 0
81 98 100 100 100 87 100 100 100 98 81 52 4 2 4 5 0 1 0 0 0 0 0 0 0 0 0 0 87 73 32 21 0 56 76 14 52 58 51 5 5 77 91 1
97 100 100 100 100 100 100 100 100 100 100 85 0 0 5 4 0 5 3 0 0 0 0 0 0 0 0 0 0 2 9 6 5 61 47 37 12 25 5 20 67 5 2 2
42 99 81 100 100 100 100 100 100 100 100 80 1 0 2 6 4 0 10 4 0 0 3 13 0 0 0 0 0 0 0 3 5 5 2 0 0 0 0 0 0 0 16 36
37 62 82 100 99 100 100 100 94 100 91 44 22 0 0 3 5 5 0 0 0 0 1 0 0 0 0 0 0 0 0 0 0 1 16 13 81 56 11 22 20 5 5 5
100 47 79 100 100 100 100 100 98 60 2 30 0 0 0 5 65 8 5 0 0 2 0 0 0 0 0 0 0 0 0 0 0 0 6 21 38 23 59 22 91 73 51 10
100 100 100 100 100 100 100 100 99 80 61 82 94 10 0 1 96 34 95 2 4 0 0 0 0 0 0 0 0 0 0 0 0 4 2 27 4 0 0 62 62 99 98 99
100 99 100 100 100 100 100 100 100 100 95 100 100 100 42 0 5 13 5 5 36 4 0 0 0 4 5 1 0 0 0 0 0 60 10 29 5 4 48 15 10 42 100 100
87 76 28 100 100 93 100 100 100 100 100 100 100 100 100 48 1 5 5 37 90 2 0 0 0 0 3 5 5 5 5 0 32 100 100 29 100 100 100 100 100 100 100 97
92 47 22 94 100 100 83 7 80 100 100 100 100 100 100 100 48 3 56 1 14 97 4 1 0 0 0 0 3 5 25 36 84 100 100 100 100 100 100 100 100 100 100 100
100 100 100 100 100 100 100 100 4 30 100 100 100 100 100 100 84 25 18 44 23 8 9 4 0 1 0 35 0 0 3 5 10 5 77 100 93 100 100 100 100 100 100 100
100 100 100 100 98 68 100 98 100 86 99 94 100 100 100 100 100 100 26 9 98 9 0 0 0 69 90 100 60 1 0 2 8 9 23 59 100 100 100 100 100 100 100 97
100 100 100 100 100 100 100 100 100 90 100 100 100 100 100 100 98 91 45 39 79 84 65 19 4 80 91 99 16 0 0 8 90 94 82 64 79 78 83 94 99 100 100 100
100 100 100 100 100 100 100 100 100 100 100 100 100 100 100 100 100 100 100 100 100 100 100 56 16 11 79 86 98 27 66 100 99 100 84 4 46 100 100 100 100 94 95 100
100 100 100 100 100 100 100 100 100 100 100 100 100 100 100 100 100 100 100 100 100 100 100 50 84 56 100 100 100 100 61 100 91 21 1 5 5 4 8 12 42 75 88 96
100 100 100 100 100 100 100 100 100 100 100 100 100 100 100 100 100 100 100 100 100 100 100 100 96 52 94 57 100 100 100 100 100 97 90 85 70 19 5 5 5 5 5 6
100 100 100 100 100 100 100 100 100 100 100 100 100 100 100 100 100 100 100 100 100 100 100 100 100 100 100 100 100 100 100 100 100 100 99 100 68 9 6 21 55 5 7 23
100 100 100 100 100 100 100 100 100 100 100 100 100 100 100 100 100 100 100 100 100 100 100 100 98 97 100 98 100 100 100 100 100 100 100 100 100 82 62 45 64 62 85 60
100 100 100 100 100 100 100 100 100 100 100 100 100 100 100 100 100 100 100 100 100 100 100 100 100 100 100 100 100 100 100 100 100 100 100 100 100 87 46 70 100 100 100 80
10 89 100 100 100 100 100 100 100 100 100 100 100 100 100 100 100 100 100 100 100 100 100 100 100 100 100 100 100 100 100 100 100 100 100 100 100 77 23 84 100 80 39 38
21 82 80 100 100 100 100 100 100 100 100 100 100 100 100 100 100 100 100 100 100 100 100 100 100 100 100 100 100 100 100 100 100 100 100 98 100 100 100 100 79 76 64 100

GFSNGP_prec_cloud_042.txt.gz
Cloud_Cover
64 31 5 5 12 92 70 38 22 0 85 0 0 0 0 0 0 0 0 0 5 5 65 86 4 4 4 2 0 0 0 0 0 0 0 0 0 0 0 0 0 0 0 0
85 5 5 1 0 70 24 5 5 0 4 0 0 0 0 0 0 0 0 0 0 4 6 70 1 5 5 0 0 0 0 0 0 0 0 0 0 0 0 0 0 0 0 0
14 39 79 61 5 50 18 5 5 2 6 0 0 3 65 80 100 42 0 0 0 3 55 5 3 4 4 0 0 0 0 0 0 0 0 0 0 0 0 0 0 0 0 3
86 94 100 14 5 5 5 5 5 2 1 0 0 3 26 85 100 98 27 0 0 5 5 20 90 3 1 5 0 0 0 0 0 0 0 0 0 0 0 0 0 5 0 0
100 100 98 100 100 95 82 57 50 82 13 5 0 0 0 100 100 100 99 0 1 2 4 5 1 5 0 5 3 0 0 0 0 0 0 0 0 0 0 9 0 0 0 0
100 100 100 56 86 76 17 92 100 100 96 16 0 6 94 100 100 100 96 6 0 5 0 5 70 5 5 5 3 0 0 0 0 0 0 0 0 0 0 2 12 22 1 3
100 100 100 94 100 20 97 43 100 100 100 81 46 96 100 100 100 100 100 53 0 2 58 95 82 100 5 89 3 1 2 0 0 0 0 0 0 3 5 5 4 28 43 16
100 100 100 84 21 92 95 100 100 100 100 100 100 100 100 100 100 100 100 97 98 100 38 27 56 68 93 80 5 5 5 5 0 4 5 5 1 42 99 84 30 40 46 46
100 100 100 100 64 28 92 100 100 100 100 100 100 100 100 100 100 100 99 100 98 40 18 1 3 5 35 6 71 100 97 96 2 0 9 68 15 8 8 9 20 72 73 83
100 100 100 100 100 100 100 100 100 100 100 100 100 100 100 100 100 100 100 100 60 73 36 21 27 100 78 11 4 40 77 99 100 88 0 1 18 100 15 100 94 73 23 64
100 100 100 100 100 100 100 100 100 100 100 100 100 100 100 89 59 92 100 100 48 75 60 27 30 100 100 96 76 92 100 100 80 100 73 100 67 55 58 83 100 91 77 36
100 100 100 100 100 100 100 100 100 100 100 100 100 100 100 89 6 92 100 100 75 94 73 26 5 23 18 45 51 13 35 5 60 22 95 82 56 95 100 100 100 100 100 48
100 100 99 94 100 100 100 100 100 100 100 100 100 55 100 100 28 33 100 100 100 99 62 18 5 5 5 5 2 0 0 0 1 97 100 100 100 100 100 100 100 100 100 100
100 100 100 100 100 100 100 100 100 100 100 100 100 100 82 100 99 29 98 100 100 100 65 24 6 6 5 5 32 46 5 97 1 84 100 100 42 13 7 82 81 100 100 100
100 100 100 100 97 100 100 95 100 100 100 100 100 100 100 100 100 100 40 71 100 100 100 100 87 62 5 5 5 5 5 8 45 94 100 50 26 3 0 0 1 66 69 88
100 100 100 100 96 100 100 100 100 100 100 100 99 100 100 100 100 100 100 38 93 100 100 100 100 100 83 23 5 5 5 44 100 100 100 100 78 44 55 71 96 99 95 100
100 100 100 100 100 100 100 100 100 100 100 100 100 100 100 94 87 70 100 97 50 100 100 100 100 100 100 92 6 5 18 66 100 100 100 100 100 99 100 100 100 100 100 100
64 97 100 100 100 100 100 100 100 100 100 100 100 100 100 100 100 100 100 95 44 79 98 100 100 100 100 100 95 13 41 97 100 100 100 100 100 100 100 100 100 100 100 100
53 6 86 100 100 100 100 100 100 100 100 100 100 100 100 100 100 100 100 100 100 100 87 100 100 100 100 93 31 18 34 92 100 100 100 100 100 100 100 100 100 100 100 98
73 16 4 9 21 19 29 99 100 100 100 100 100 100 100 100 100 100 100 100 100 100 100 100 100 100 100 100 57 81 17 64 100 100 100 100 100 100 100 100 100 100 100 100
98 83 5 0 4 5 5 5 7 88 100 100 100 100 100 100 100 100 100 100 100 100 100 100 100 96 100 100 89 99 83 66 99 100 100 100 100 100 100 100 100 100 100 100
74 40 97 16 5 5 4 5 5 5 12 85 100 100 100 100 100 100 100 100 100 100 100 100 100 100 100 100 100 97 100 100 91 100 100 100 100 100 100 100 100 100 100 100
5 6 11 47 6 4 10 35 12 65 83 74 36 80 100 100 100 100 100 100 100 100 100 100 100 100 100 100 100 100 98 100 100 100 100 100 100 100 100 100 100 100 100 94
3 5 5 5 5 5 5 1 5 5 10 95 100 93 17 72 100 100 100 100 100 100 100 100 100 100 100 100 100 100 100 100 100 100 100 100 100 100 100 100 100 100 100 100
0 0 4 3 3 5 5 5 3 3 0 5 5 29 23 83 39 92 100 100 100 100 100 100 100 100 100 100 100 100 100 100 100 100 100 100 100 100 100 100 100 100 100 100
5 4 1 0 3 0 0 0 4 5 3 3 5 3 11 88 98 99 75 98 100 100 100 100 100 100 100 100 100 100 100 100 100 100 100 100 100 100 100 100 100 100 100 100
26 67 72 16 0 0 0 0 4 5 5 5 5 5 6 99 99 100 87 89 100 100 100 100 100 100 100 100 100 100 100 100 100 100 100 100 100 100 100 100 100 100 86 100

GFSNGP_prec_cloud_045.txt.gz
Cloud_Cover
5 1 7 5 5 0 0 1 48 9 38 0 0 0 0 0 0 0 0 5 4 9 10 16 17 3 4 0 0 0 0 0 0 4 5 3 0 0 0 0 0 0 0 0
4 0 1 5 5 0 2 0 0 5 56 0 0 0 0 0 0 0 0 5 5 5 5 5 5 5 4 3 0 0 0 0 0 0 0 0 0 0 0 0 0 0 0 0
1 32 97 64 5 0 0 0 0 2 1 0 0 0 1 0 0 0 0 0 3 3 5 6 5 1 3 3 1 0 0 0 0 0 0 0 0 0 0 0 0 0 0 0
14 100 100 5 38 0 92 21 0 2 0 0 0 4 40 67 66 19 0 0 0 0 5 98 3 9 17 26 0 0 0 0 0 0 0 0 0 0 0 0 0 0 0 0
100 100 91 11 98 59 73 0 5 0 0 0 24 53 30 98 100 100 100 89 0 0 1 12 67 75 53 5 0 0 0 0 0 0 0 0 0 0 0 0 0 0 0 0
100 100 100 100 100 15 32 36 21 17 33 1 0 0 38 100 100 100 100 95 0 0 0 0 10 33 97 35 0 0 0 0 0 0 0 0 0 0 0 0 0 0 2 4
100 100 100 100 100 51 60 48 100 100 100 100 75 84 100 100 100 100 100 96 0 0 0 0 1 91 99 5 1 2 0 0 0 0 0 0 0 0 1 8 0 1 0 0
100 100 100 100 100 98 64 98 100 100 100 100 100 100 100 100 100 100 100 99 9 0 0 0 16 100 90 7 81 4 0 0 0 0 0 0 0 0 0 4 17 12 16 9
100 100 100 100 100 88 100 100 100 100 100 100 100 100 100 100 100 100 100 100 99 34 5 0 65 76 5 11 9 4 0 0 0 0 0 0 0 2 14 31 0 11 5 5
100 100 100 100 100 100 100 100 100 100 100 100 100 100 100 100 100 100 100 100 100 89 81 68 99 99 85 16 96 5 0 2 0 0 0 0 0 0 0 0 13 5 2 5
100 100 100 100 100 100 100 100 100 100 100 100 100 100 100 100 100 100 100 100 100 100 98 100 79 47 69 100 64 43 96 64 5 56 1 0 5 14 5 4 21 58 12 5
100 100 100 100 100 100 100 100 100 100 100 100 100 100 100 100 100 100 100 100 100 100 97 93 66 84 33 71 2 45 60 19 100 94 78 4 12 37 100 91 100 100 94 96
100 100 100 100 100 100 100 100 100 100 97 100 100 100 100 93 94 48 54 44 82 86 94 77 47 9 91 87 97 32 5 100 82 99 99 100 93 2 18 100 100 100 100 89
100 100 100 100 100 100 100 100 100 100 100 100 100 66 100 73 95 100 100 97 76 16 36 34 42 12 3 40 50 96 90 100 100 100 100 100 100 20 22 76 100 100 100 100
100 100 100 100 100 100 100 100 100 100 100 100 100 91 16 55 60 100 100 100 100 17 9 7 14 41 33 26 42 75 88 87 95 100 100 97 39 22 18 56 77 91 100 100
100 100 100 100 100 100 100 100 100 100 100 100 100 100 100 66 40 10 16 100 100 100 84 96 100 100 100 92 82 52 40 100 100 100 100 92 44 35 44 79 94 100 92 100
100 100 100 100 100 100 100 100 100 100 100 100 100 100 100 100 60 50 56 22 5 5 6 100 100 100 100 100 100 100 70 78 100 100 100 100 100 100 100 100 100 100 100 100
100 100 100 100 100 100 100 100 100 100 100 100 100 100 99 100 100 100 100 84 20 5 53 100 100 100 100 100 100 100 100 59 98 100 100 100 100 100 100 100 100 100 100 100
91 100 100 100 96 94 83 100 100 100 99 100 100 100 100 100 100 100 100 100 95 81 40 52 99 100 100 100 100 100 100 97 93 100 100 100 100 100 100 100 100 100 100 100
51 89 7 5 5 7 45 90 98 100 100 100 100 100 100 100 100 100 100 100 100 100 100 90 96 62 100 100 100 100 100 83 98 100 100 100 100 92 100 100 100 100 100 100
100 96 14 5 3 21 22 19 40 85 100 100 100 100 100 100 100 100 100 100 100 100 100 100 100 100 98 93 98 100 100 100 100 100 100 100 100 100 100 100 100 100 100 100
48 100 100 36 5 0 17 39 10 11 99 90 100 100 100 100 100 100 100 100 99 100 100 100 100 100 85 99 94 100 100 100 100 100 100 100 100 100 100 100 100 100 100 100
5 12 57 100 51 3 2 2 27 4 1 28 83 100 100 100 100 100 100 84 100 100 100 100 100 100 98 100 100 100 100 98 100 100 100 100 100 100 100 100 100 100 100 100
1 86 47 6 98 13 5 1 14 19 0 0 2 54 37 100 100 100 100 100 100 100 100 100 100 100 100 100 100 100 100 100 100 100 100 100 100 100 100 100 100 100 100 100
5 5 0 0 0 4 5 5 5 3 0 1 1 4 23 54 99 100 100 100 100 100 100 100 100 100 100 100 100 100 100 100 100 100 100 100 100 100 100 100 100 100 100 100
5 5 5 4 0 0 0 0 4 5 1 5 5 2 3 29 99 98 100 100 100 100 100 100 100 100 100 100 100 100 100 100 100 100 100 100 100 100 100 100 100 100 100 100
84 6 5 5 5 5 5 4 2 4 4 5 5 5 5 5 34 49 49 100 100 100 100 100 100 100 100 100 100 100 100 100 100 100 100 100 100 100 100 100 100 100 100 100

GFSNGP_prec_cloud_048.txt.gz
Cloud_Cover
1 0 0 0 0 0 4 5 1 3 98 28 43 0 0 0 0 0 0 45 5 5 5 5 35 3 3 0 0 0 0 0 0 1 4 5 5 0 0 0 0 0 0 0
33 5 1 0 0 0 0 5 0 0 0 9 37 0 0 0 0 0 0 63 5 5 5 5 5 5 32 0 0 0 0 0 0 0 0 5 58 55 5 0 0 0 0 0
11 8 0 1 0 0 0 0 0 0 0 0 0 5 0 0 0 0 0 4 5 5 5 5 33 62 5 5 0 0 0 0 0 0 0 0 3 12 7 0 0 0 0 0
5 37 97 0 0 0 0 0 0 0 0 5 5 0 0 0 0 0 0 0 2 4 5 5 5 12 19 5 5 0 4 0 0 0 0 0 0 1 0 0 0 0 0 0
100 7 2 0 0 1 0 0 0 0 0 0 0 0 0 2 4 4 0 0 0 0 0 2 3 10 53 5 0 4 0 0 0 0 0 0 0 0 0 0 0 0 0 0
100 95 65 11 38 74 82 25 18 5 1 0 0 0 43 0 1 1 21 18 4 0 0 0 0 13 78 5 24 5 4 0 0 0 0 0 0 0 0 0 0 0 0 0
57 96 74 100 100 100 100 26 30 12 32 16 5 3 60 63 46 52 42 58 8 0 0 0 4 4 5 8 8 67 5 0 0 0 0 0 0 0 0 0 0 0 0 0
100 100 100 100 100 100 100 86 95 100 100 78 45 49 86 100 100 94 98 80 0 0 0 0 2 4 5 34 100 49 7 0 0 0 0 0 0 0 0 0 0 0 0 0
100 100 100 100 100 100 100 100 100 100 86 94 100 100 93 100 100 100 100 100 49 0 0 0 0 3 5 73 53 100 62 0 0 0 0 0 0 8 2 9 0 0 0 0
100 100 100 100 100 100 100 100 100 100 100 99 100 97 100 100 100 100 100 100 100 100 91 78 43 9 4 8 50 93 94 2 0 15 7 0 0 0 0 0 0 0 0 0
100 100 100 100 100 100 100 100 100 100 100 100 100 100 100 100 100 100 100 100 100 100 100 100 100 100 100 86 16 87 27 11 19 14 30 45 42 13 15 0 18 0 1 5
100 100 100 100 100 100 100 100 100 100 100 100 100 81 100 100 100 100 100 100 100 100 100 100 100 100 100 100 92 12 12 5 3 4 56 92 96 64 91 84 100 100 100 55
100 100 100 100 100 100 100 100 100 100 100 100 100 100 100 100 100 100 100 100 100 100 100 100 100 100 100 100 82 100 100 99 74 69 99 49 26 90 100 100 100 100 100 100
100 100 100 100 100 100 100 100 100 100 100 100 100 100 100 100 100 100 100 100 100 100 100 100 100 100 100 100 100 85 90 97 100 100 42 49 8 99 100 100 100 100 100 100
100 100 100 100 100 100 100 100 100 100 100 100 99 100 100 100 100 92 89 98 92 99 88 100 100 100 86 93 95 66 93 29 26 0 6 26 49 100 100 100 100 100 100 100
100 100 100 100 100 100 100 100 100 100 100 100 100 100 100 100 100 100 99 90 96 100 100 100 100 100 100 100 91 100 72 80 68 90 46 82 100 100 100 100 100 100 100 100
100 100 100 100 100 100 100 100 100 100 100 100 100 100 100 100 60 87 100 100 100 100 100 100 100 100 100 100 100 100 100 97 92 88 9 100 100 100 100 100 100 100 100 100
100 100 100 100 100 100 100 100 100 100 100 100 100 100 100 100 100 100 100 100 100 100 100 100 100 100 100 86 100 100 100 85 92 96 61 100 100 100 100 100 100 100 100 97
100 100 100 100 100 100 100 99 100 100 100 100 100 100 100 100 100 100 100 92 100 100 100 100 100 100 100 100 93 93 100 100 99 57 99 100 100 100 100 100 100 100 100 75
100 100 100 100 100 100 100 100 100 100 100 100 100 100 100 100 100 100 100 100 100 100 100 97 100 100 100 64 95 100 79 100 100 99 90 100 100 100 100 100 100 100 100 100
81 30 62 42 93 100 97 100 100 100 100 100 100 100 100 100 100 100 100 100 100 100 100 100 95 96 67 97 84 53 82 100 100 97 100 100 100 100 100 100 100 100 100 100
73 87 84 68 100 100 86 78 91 98 87 90 100 97 100 100 100 100 100 100 100 100 100 100 100 99 100 63 23 25 99 80 74 100 79 100 100 100 100 100 100 100 100 100
86 54 86 100 97 94 84 49 72 78 82 53 96 100 100 100 100 100 100 100 100 100 100 100 100 100 100 100 100 99 100 100 100 100 100 100 100 100 100 100 100 100 100 100
70 70 8 86 100 57 5 5 80 74 94 100 98 35 28 100 100 94 100 100 100 100 100 100 100 100 100 100 100 100 100 100 100 100 100 88 100 100 100 100 100 100 100 100
74 12 8 71 100 91 97 21 99 100 91 99 86 100 82 100 63 92 100 100 100 100 100 100 100 100 100 100 100 100 100 100 100 100 100 100 79 100 100 100 100 100 100 100
84 100 98 4 14 59 85 60 97 67 92 99 98 100 100 87 42 85 91 99 100 100 100 100 100 100 100 100 100 100 100 100 100 100 100 100 100 100 100 100 100 100 100 100
63 77 93 98 97 98 4 5 80 99 78 100 100 100 100 100 100 54 96 78 100 100 100 100 100 100 100 100 100 100 100 100 100 100 100 100 100 100 100 100 100 100 100 100